Regional Weather Roundup
Issued by NWS

Home | Current Version | Previous Version | Graphics & Text | Print | Product List | Glossary On
Versions: 1 2 3 4 5 6 7 8 9 10 11 12 13 14 15 16 17 18 19 20 21 22 23 24 25 26 27 28 29 30 31 32 33 34 35 36 37 38 39 40 41 42 43 44 45 46 47 48 49 50
000
ASUS45 KTFX 221719
RWRMT
MONTANA HOURLY WEATHER ROUNDUP
NATIONAL WEATHER SERVICE GREAT FALLS MT
1119 AM MDT TUE APR 22 2014

NOTE: "FAIR" INDICATES FEW OR NO CLOUDS BELOW 12000 FEET WITH NO
SIGNIFICANT WEATHER AND/OR OBSTRUCTIONS TO VISIBILITY.

* THESE STATIONS ARE NOT UNDER NWS QUALITY CONTROL. THEY DO NOT
   REPORT WEATHER SUCH AS PRECIPITATION OR FOG.

MTZ001>007-043-221800-
WEST OF THE DIVIDE
CITY           SKY/WX    TMP DP  RH WIND       PRES   REMARKS
KALISPELL      CLOUDY    52  36  55 S3        29.62R
MISSOULA       PTSUNNY   55  30  39 N6        29.67R
BUTTE          CLOUDY    57  34  42 S12       29.67F
MULLAN PASS    LGT SNOW  34  34 100 CALM      29.68F VSB M1/4
* ESSEX        N/A       50  28  43 SE9G16     N/A
* LINCOLN      N/A       46  29  52 N3         N/A
* LOOKOUT PASS N/A       40  37  89 N/A        N/A
* PLAINS APT   CLOUDY    50  37  61 CALM      29.71R
* POLSON       N/A       48  35  61 SW3        N/A
* SEELEY LAKE  N/A       51  30  45 SE2        N/A
* THOMP F APT  CLOUDY    52  39  61 E8G15      N/A
$$

MTZ008-052>055-221800-
SOUTHWEST MONTANA
CITY           SKY/WX    TMP DP  RH WIND       PRES   REMARKS
BOZEMAN        PTSUNNY   66  36  33 SE14      29.65F
DILLON         PTCLDY    59  36  42 S24G33    29.64F
W YELLOWSTONE  N/A       49  40  71 NE3        N/A
* THREE FORKS  PTCLDY    66  39  37 SE11G21    N/A
* BOULDER HILL N/A       56  30  37 SW16       N/A
* MONIDA PASS  N/A       46  38  74 SE11G16    N/A
* RAYNOLDS PAS N/A       45  29  54 S14G22     N/A
* WHITEHALL    N/A       62  32  32 SE3        N/A
* WISE RIVER   N/A       58  36  44 SE14G22    N/A
$$

MTZ009>010-012-014-046-048-049-054-221800-
EAST SLOPES AND CENTRAL MONTANA
CITY           SKY/WX    TMP DP  RH WIND       PRES   REMARKS
CUT BANK       PTSUNNY   55  28  35 E6        29.61F
GREAT FALLS    CLOUDY    64  30  28 S12       29.61F
HELENA         PTSUNNY   55  28  35 N3        29.62F
MALMSTROM AFB  CLOUDY    63  30  29 CALM      29.59F
* CONRAD       PTSUNNY   55  30  39 N/A        N/A
* DEARBORN     N/A       57  32  39 NE2        N/A
* EAST GLACIER N/A       54  24  31 VRB1       N/A
* MONARCH      N/A       58  25  28 S12G21     N/A
* PENDROY      N/A       58  28  32 S6         N/A
* ROGERS PASS  N/A       57  23  27 SW2G11     N/A
* SAINT MARY   N/A       48  33  56 W4         N/A
* SWEET GRASS  N/A       57  26  30 S12G17     N/A
* WHITE SULPH  N/A       61  34  36 S11G18     N/A
$$

MTZ011-013-016-021-035-040-045-047-050-051-221800-
NORTH CENTRAL MONTANA
CITY           SKY/WX    TMP DP  RH WIND       PRES   REMARKS
HAVRE          CLOUDY    66  32  28 NE10      29.62F
LEWISTOWN      CLOUDY    66  30  26 N3        29.66F
* CHINOOK      PTSUNNY   61  30  31 E16G24    29.64F
* FORT BENTON  CLOUDY    64  30  28 NE6       29.61F
* MALTA APT    CLOUDY    64  34  33 E10G18    29.68F
* DENTON       N/A       66  33  29 SE12G19    N/A
* GEYSER       N/A       62  34  35 NE8        N/A
* JUDITH GAP   N/A       55  31  40 SE9        N/A
* LOMA         N/A       62  27  26 E8         N/A
$$

MTZ017>020-022>027-061-062-221800-
NORTHEAST MONTANA
CITY           SKY/WX    TMP DP  RH WIND       PRES   REMARKS
GLASGOW        CLOUDY    61  34  36 SE20      29.74F
JORDAN         CLOUDY    63  34  34 SE13      29.72F
SIDNEY         PTSUNNY   64  30  28 SE20G25   29.83F
WOLF POINT     PTSUNNY   64  30  28 E16G25    29.77F
* BEAVER HILL  N/A       59  31  35 E25G34     N/A
* CIRCLE       N/A       60  37  43 E4G11      N/A
* LINDSAY DVD  N/A       54  32  43 E17G23     N/A
* NAVAJO       N/A       60  29  31 SE17G25    N/A
* SACO         N/A       61  31  32 E20G25     N/A
* SCOBEY APT   PTSUNNY   63  28  27 E20G28    29.80F
$$

MTZ028>042-056>058-221800-
SOUTHCENTRAL AND SOUTHEAST MONTANA
CITY           SKY/WX    TMP DP  RH WIND       PRES   REMARKS
BAKER          PTCLDY    59  34  39 SE21      29.80F
BILLINGS       CLOUDY    55  34  45 CALM      29.71F
LIVINGSTON     PTSUNNY   57  34  42 E6        29.71F
MILES CITY     PTCLDY    64  36  35 SE14      29.73F
* EKALAKA APT  PTCLDY    64  34  33 E16G21    29.79F
* LAUREL APT   CLOUDY    54  32  43 N/A        N/A
* ROUNDUP APT  CLOUDY    52  30  43 N/A        N/A
* HYSHAM       N/A       65  37  36 E3         N/A
* LAME DEER    N/A       67  34  29 SE4G9      N/A
* REED POINT   N/A       55  36  49 NE2        N/A
* ROSCOE HILL  N/A       54  24  31 NE2        N/A
$$

REGIONAL REPORTS...DAKOTAS
CITY           SKY/WX    TMP DP  RH WIND       PRES   REMARKS
WILLISTON      PTCLDY    64  28  26 SE22G31   29.87F
DICKINSON      PTCLDY    63  27  26 SE25G37   29.85F
CROSBY         SUNNY     63  28  27 SE24G31   29.89F
TIOGA          SUNNY     63  25  24 SE25G32   29.93F
WATFORD CITY   SUNNY     63  27  26 SE26G37   29.85F
BISMARCK       PTCLDY    64  30  28 SE15      29.97F
GRAND FORKS    PTCLDY    54  36  51 SE7       30.11S
FARGO          PTSUNNY   55  34  45 S5        30.11F
BUFFALO SD     SUNNY     61  32  34 E15       29.76F
RAPID CITY     SUNNY     63  37  38 S16       29.81F
$$

REGIONAL REPORTS...WYOMING/IDAHO/WASHINGTON
CITY           SKY/WX    TMP DP  RH WIND       PRES   REMARKS
GILLETTE       CLOUDY    57  36  46 SE12      29.79F
SHERIDAN       CLOUDY    59  37  44 N8        29.76F
CODY           PTSUNNY   63  34  34 S6        29.75F
YELLOWSTONE LA PTSUNNY   43  36  76 CALM      29.89F
SALMON         CLOUDY    61  37  41 SW13      29.59F
MULLAN PASS    LGT SNOW  34  34 100 CALM      29.68S VSB M1/4
SAND POINT     CLOUDY    45  45 100 CALM      29.67F
SPOKANE        LGT RAIN  45  41  86 SW17      29.68S
$$

REGIONAL REPORTS...ALBERTA
CITY           SKY/WX    TMP DP  RH WIND       PRES   REMARKS
CALGARY        CLOUDY    54  27  35 E3        29.61F
LETHBRIDGE     PTSUNNY   57  30  36 CALM      29.60F
MEDICINE HAT   PTSUNNY   70  25  18 SE8       29.60F
EDMONTON       PTCLDY    57  30  36 E13       29.63F
WATERTON GATE  N/A       55  28  35 E3         N/A
CARDSTON       N/A       61  30  31 SE12       N/A
MILK RIVER     N/A       61  28  29 S13        N/A
$$

REGIONAL REPORTS...SASKATCHEWAN
CITY           SKY/WX    TMP DP  RH WIND       PRES   REMARKS
SWIFT CURRENT  SUNNY     64  27  25 SE24G31   29.71F
MOOSE JAW      SUNNY     63  32  31 SE18G28   29.83F
REGINA         SUNNY     61  36  39 SE20G30   29.88F
VAL MARIE      N/A       66  25  21 SE20G26    N/A
ASSINIBOIA     N/A       59  30  33 SE16G22    N/A
CORONACH       N/A       61  30  31 E17G24     N/A

$$




USA.gov is the U.S. government's official web portal to all federal, state and local government web resources and services.